Location: Napier
(39.4830°S, 176.9170°E)
Time: 02:23:53
(UTC+12:00)

Helios 1A Rocket - Pass Details

Date: 15 August 2020
Orbit: 564 x 585 km, 98.3° (Epoch: 19 September)

Event Time Altitude Azimuth Distance (km) Brightness Sun altitude
Rises 19:45:30 0° 177° (S) 2,837 6.5 -25.8°
Reaches altitude 10° 19:47:48 10° 185° (S) 1,925 5.7 -26.2°
Maximum altitude 19:51:36 35° 250° (WSW) 959 4.5 -27.0°
Drops below altitude 10° 19:55:19 10° 316° (NW) 1,888 6.0 -27.7°
Sets 19:57:34 0° 325° (NW) 2,774 6.8 -28.1°
